EW4196 Weather Reports


Display with metric or nautical units.
time (UTC)temp
F
wind
direction
speed
MPH
gust
MPH
rain 1hr
in
rain 24hr
in
rain mn
in
humidity
%
barometer
mb
20260903220040 95 96 3.0 11.0 0.00 0.00 0.00 47 1009.1
20260903214542 95 110 2.0 11.0 0.00 0.00 0.00 47 1009.1
20260903213046 95 105 0.0 9.0 0.00 0.00 0.00 47 1009.3
20260903211535 96 102 0.0 9.0 0.00 0.00 0.00 47 1009.3
20260903210034 96 92 2.0 11.0 0.00 0.00 0.00 47 1009.4
20260903204529 96 125 1.0 7.0 0.00 0.00 0.00 47 1009.6
20260903203033 95 130 2.0 11.0 0.00 0.00 0.00 48 1009.8
20260903201534 96 135 0.0 5.0 0.00 0.00 0.00 47 1009.9
20260903200024 95 90 0.0 10.0 0.00 0.00 0.00 48 1010.2
20260903194528 96 131 1.0 8.0 0.00 0.00 0.00 46 1010.2
20260903193035 96 91 6.0 11.0 0.00 0.00 0.00 46 1010.3
20260903191525 95 113 2.0 9.0 0.00 0.00 0.00 46 1010.5
20260903190025 95 129 2.0 12.0 0.00 0.00 0.00 50 1010.6
20260903184521 96 136 0.0 6.0 0.00 0.00 0.00 48 1010.8
20260903183020 95 101 0.0 6.0 0.00 0.00 0.00 47 1011.0
20260903181519 95 135 0.0 7.0 0.00 0.00 0.00 47 1011.1
20260903180021 95 95 2.0 9.0 0.00 0.00 0.00 47 1011.2
20260903174513 94 108 2.0 11.0 0.00 0.00 0.00 49 1011.5
20260903173009 93 133 2.0 13.0 0.00 0.00 0.00 51 1011.6
20260903171507 93 111 1.0 8.0 0.00 0.00 0.00 50 1011.7
20260903170011 92 101 5.0 13.0 0.00 0.00 0.00 52 1011.8
20260903164505 92 97 1.0 6.0 0.00 0.00 0.00 54 1012.0
20260903163102 90 101 1.0 8.0 0.00 0.00 0.00 56 1012.1
20260903161558 90 98 0.0 10.0 0.00 0.00 0.00 57 1012.2
20260903160055 89 131 0.0 4.0 0.00 0.00 0.00 60 1012.3
20260903154555 89 95 2.0 7.0 0.00 0.00 0.00 60 1012.5
20260903153049 87 127 0.0 6.0 0.00 0.00 0.00 64 1012.5
20260903151547 87 134 0.0 7.0 0.00 0.00 0.00 64 1012.6
20260903150045 86 143 0.0 6.0 0.00 0.00 0.00 66 1012.7
20260903144547 85 175 0.0 7.0 0.00 0.00 0.00 68 1012.8
20260903143047 84 94 2.0 9.0 0.00 0.00 0.00 69 1012.9
20260903141541 82 128 1.0 8.0 0.00 0.00 0.00 72 1012.9
20260903140045 81 94 4.0 9.0 0.00 0.00 0.00 73 1013.2
20260903134539 80 93 2.0 6.0 0.00 0.00 0.00 75 1013.3
20260903133044 79 94 0.0 6.0 0.00 0.00 0.00 77 1013.3
20260903131538 79 91 1.0 4.0 0.00 0.00 0.00 78 1013.2
20260903130042 78 129 0.0 3.0 0.00 0.00 0.00 79 1013.2
20260903124534 77 134 0.0 0.0 0.00 0.00 0.00 80 1013.0
20260903123032 77 127 0.0 0.0 0.00 0.00 0.00 80 1012.9
20260903121535 77 101 0.0 0.0 0.00 0.00 0.00 79 1012.9
20260903120039 77 143 0.0 3.0 0.00 0.00 0.00 79 1012.8
20260903114526 77 100 0.0 2.0 0.00 0.00 0.00 78 1012.6
20260903113041 77 96 0.0 4.0 0.00 0.00 0.00 77 1012.5
20260903111522 78 105 0.0 0.0 0.00 0.00 0.00 76 1012.6
20260903110021 78 96 0.0 4.0 0.00 0.00 0.00 76 1012.5
20260903104518 78 96 1.0 4.0 0.00 0.00 0.00 76 1012.4
20260903103016 78 99 0.0 0.0 0.00 0.00 0.00 75 1012.3
20260903101522 78 110 0.0 0.0 0.00 0.00 0.00 75 1012.3
20260903100021 78 98 0.0 0.0 0.00 0.00 0.00 74 1012.4
20260903094524 79 96 0.0 0.0 0.00 0.00 0.00 73 1012.5
20260903093009 79 96 0.0 0.0 0.00 0.00 0.00 72 1012.3
20260903091507 79 104 0.0 0.0 0.00 0.00 0.00 72 1012.3
20260903090006 80 95 0.0 0.0 0.00 0.00 0.00 70 1012.2
20260903084507 80 94 0.0 0.0 0.00 0.00 0.00 70 1012.0
20260903083002 81 90 0.0 0.0 0.00 0.00 0.00 69 1012.1
20260903081600 81 100 0.0 0.0 0.00 0.00 0.00 68 1012.0
20260903080100 81 114 0.0 0.0 0.00 0.00 0.00 68 1011.9
20260903074556 82 94 0.0 0.0 0.00 0.00 0.00 67 1011.7
20260903073055 82 96 0.0 0.0 0.00 0.00 0.00 66 1011.6
20260903071600 83 96 0.0 0.0 0.00 0.00 0.00 65 1011.8
20260903070052 83 94 0.0 0.0 0.00 0.00 0.00 64 1012.0
20260903064555 83 105 0.0 0.0 0.00 0.00 0.00 63 1011.9
20260903063050 84 113 0.0 0.0 0.00 0.00 0.00 63 1011.8
20260903061551 84 100 0.0 0.0 0.00 0.00 0.00 62 1011.7
20260903060046 84 94 0.0 0.0 0.00 0.00 0.00 61 1011.7
20260903054544 84 106 0.0 0.0 0.00 0.00 0.00 59 1011.6
20260903053041 85 106 0.0 0.0 0.00 0.00 0.00 57 1011.5
20260903051553 86 106 0.0 0.0 0.00 0.00 0.00 56 1011.5
20260903050038 86 102 0.0 0.0 0.00 0.00 0.00 55 1011.4
20260903044541 86 93 0.0 0.0 0.00 0.00 0.00 55 1011.3
20260903043117 87 91 0.0 0.0 0.00 0.00 0.00 54 1011.2
20260903041535 87 92 0.0 0.0 0.00 0.00 0.00 53 1011.1
20260903040035 87 112 0.0 0.0 0.00 0.00 0.00 52 1011.1
20260903034539 88 110 0.0 0.0 0.00 0.00 0.00 51 1011.1
20260903033034 88 101 0.0 0.0 0.00 0.00 0.00 51 1011.0
20260903031532 88 96 0.0 0.0 0.00 0.00 0.00 53 1011.0
20260903030032 89 96 0.0 1.0 0.00 0.00 0.00 52 1010.8
20260903024531 89 96 0.0 0.0 0.00 0.00 0.00 50 1010.7
20260903023031 89 94 0.0 2.0 0.00 0.00 0.00 49 1010.6
20260903021532 88 124 0.0 0.0 0.00 0.00 0.00 51 1010.4
20260903020030 89 124 0.0 0.0 0.00 0.00 0.00 48 1010.3
20260903014529 90 124 0.0 0.0 0.00 0.00 0.00 47 1010.1
20260903013029 91 124 0.0 0.0 0.00 0.00 0.00 46 1009.9
20260903011528 92 135 0.0 0.0 0.00 0.00 0.00 45 1009.8
20260903010028 93 135 0.0 0.0 0.00 0.00 0.00 43 1009.7
20260903004533 95 135 0.0 0.0 0.00 0.00 0.00 41 1009.6
20260903003027 96 135 0.0 1.0 0.00 0.00 0.00 39 1009.7
20260903001527 97 133 0.0 2.0 0.00 0.00 0.00 38 1009.6
20260903000026 98 130 0.0 1.0 0.00 0.00 0.00 37 1009.7
20260902234525 99 137 0.0 6.0 0.00 0.00 0.00 36 1009.7
20260902233024 100 129 0.0 4.0 0.00 0.00 0.00 35 1009.7
20260902231524 101 98 1.0 11.0 0.00 0.00 0.00 34 1009.9
20260902230020 101 94 0.0 4.0 0.00 0.00 0.00 33 1010.0
20260902224527 101 139 0.0 7.0 0.00 0.00 0.00 34 1010.1
20260902223024 101 132 0.0 7.0 0.00 0.00 0.00 34 1010.2
20260902221518 101 123 0.0 7.0 0.00 0.00 0.00 34 1010.2